User: anonymous   Login
Location: Unspecified
(0.0000°N, 0.0000°E)
Time: 23:19:56
(UTC+00:00)
Language:

AIST 2D - Orbit

View from above orbital plane
View from above orbital plane
View from above satellite
View from above satellite

Ground track
Ground track

The orbit data is extracted from the following two-line orbital elements,

1 41465U 16026B   17141.80591314 +.00001868 +00000-0 +64503-4 0  9995
2 41465 097.2517 045.3705 0011160 324.4052 121.7330 15.31149535059420
Epoch (UTC): 21 May 2017 19:20:30
Eccentricity: 0.0011160
inclination: 97.2517°
perigee height: 465 km
apogee height: 480 km
right ascension of ascending node: 45.3705°
argument of perigee: 324.4052°
revolutions per day: 15.31149535
mean anomaly at epoch: 121.7330°
orbit number at epoch: 5942

The dashed part of the orbit path shows where the satellite is in the earth's shadow,  

DLR